Location: Boitzum
(52.1496°N, 9.6943°E)
Time: 20:58:19
(UTC+00:00)

Thor Agena Rocket - Pass Details

Date: 13 January 2026
Orbit: 755 x 801 km, 99.1° (Epoch: 16 February)

Event Time Altitude Azimuth Distance (km) Brightness Sun altitude
Rises 06:43:26 0° 12° (NNE) 3,236 6.6 -6.2°
Reaches altitude 10° 06:45:48 10° 7° (N) 2,310 5.8 -5.9°
Maximum altitude 06:50:39 47° 295° (WNW) 1,021 3.8 -5.3°
Drops below altitude 10° 06:55:31 10° 223° (SW) 2,321 5.9 -4.6°
Sets 06:57:54 0° 217° (SW) 3,252 6.7 -4.3°
